SCP
0 0 0 0 0 -0 0 0 0 0 0 0 -0 0 0 0 0 0 0 0 -0 -0 -0 -0 -0 0 0 0 0 0 0 0 0 0 0 0 0 0 0 0 0 0 0 -0
0 0 0 0 0 0 -0 0 0 0 0 0 0 0 0 0 0 0 -0 -0 -0 0 -0 -0 -0 0 0 0 0 0 0 0 0 0 0 0 0 0 0 0 0 0 0 0
0 0 0 0 0 0 0 0 0 0 0 0 0 0 0 0 0 0 -0 -0 0 -0 -0 -0 -0 0 0 0 0 0 0 0 0 0 0 0 0 0 0 0 0 0 0 0
0 0 0 0 0 0 0 0 0 0 0 0 0 0 0 0 0 0 0 -0 0 -0 0 0 0 0 0 0 0 0 0 0 0 0 0 0 0 0 0 0 0 0 0 0
0 0 0 0 0 0 0 0 0 0 0 0 0 0 0 0 0 0 0 0 0 0 0 0 0 0 0 0 0 0 0 0 0 0 0 0 0 0 0 0 0 0 0 0
0 0 0 0 0 0 0 0 1 0 0 0 0 0 0 0 0 0 0 0 0 0 0 0 0 0 0 0 0 0 0 0 0 0 0 0 0 0 0 0 0 0 0 0
0 0 0 0 0 0 0 0 0 0 0 0 0 0 0 0 0 0 0 0 0 0 0 0 0 0 0 0 0 0 0 0 0 0 0 0 0 0 0 0 0 0 0 0
0 0 0 0 0 0 0 0 0 0 0 0 0 0 0 0 0 0 0 0 0 0 0 0 0 0 0 0 0 0 0 0 0 0 0 0 0 0 0 0 0 0 0 0
0 0 0 0 0 0 0 0 0 0 0 0 0 0 0 0 0 0 0 0 0 0 0 0 0 0 0 0 0 0 0 0 0 0 0 0 0 0 0 0 0 0 0 0
0 0 0 0 0 0 0 0 0 0 0 0 0 0 0 -0 0 0 0 0 0 0 0 0 0 0 0 0 0 0 0 0 0 0 0 0 0 0 0 0 0 0 0 0
0 0 0 0 0 0 0 0 0 0 0 0 0 0 0 0 0 0 0 0 0 0 0 0 0 0 0 0 0 0 0 0 0 0 0 0 0 0 0 0 0 0 0 0
0 0 0 0 0 0 0 0 0 0 0 0 0 0 0 0 0 0 0 0 0 0 0 0 0 0 0 0 0 0 0 0 0 0 0 0 0 0 0 0 0 0 0 0
0 0 0 0 0 0 0 0 0 0 0 0 0 0 0 0 -0 -0 0 0 0 0 0 0 0 0 0 0 0 0 0 0 0 0 0 0 0 0 0 0 0 0 0 0
0 0 0 0 0 0 0 0 0 0 0 0 0 0 0 0 0 0 0 0 0 0 0 0 0 0 0 0 0 0 0 0 0 0 0 0 -0 -0 -0 -0 0 0 0 0
0 0 0 0 0 0 0 0 0 0 0 0 0 0 0 0 0 0 0 0 0 0 0 0 0 0 0 0 0 0 0 0 0 -0 -0 -0 -0 -0 -0 -0 -0 -0 -0 0
0 0 0 0 0 0 0 0 0 0 0 0 0 0 0 0 0 0 0 0 0 0 0 0 0 0 0 0 0 0 -0 -0 -0 -0 -0 -0 -0 -0 -0 -0 -0 -0 -0 -0
0 0 0 0 0 0 0 0 0 0 0 0 0 0 0 0 0 0 0 0 0 0 0 -0 -0 -0 -0 -0 0 0 -0 -0 -0 0 0 -0 -0 -0 -0 -0 -0 -0 -0 -0
0 0 0 0 0 0 0 0 0 0 0 0 0 0 0 0 0 0 0 0 0 0 -0 -0 0 0 -0 -0 0 0 0 0 0 0 0 0 0 0 0 0 0 -0 -0 -0
0 0 0 0 0 0 0 0 0 0 0 0 0 0 0 0 0 0 0 0 0 0 0 0 0 0 0 0 0 0 0 0 0 0 0 0 0 0 0 0 0 -0 -0 0
0 0 0 0 0 0 0 0 0 0 0 0 0 0 0 0 0 0 0 0 0 0 0 0 0 0 0 0 0 0 0 0 0 0 0 0 0 0 0 0 0 0 0 0
0 0 0 0 0 0 0 0 0 0 0 0 0 0 0 0 0 0 0 0 0 0 0 0 0 0 0 0 0 0 0 0 0 0 0 0 0 0 0 0 0 0 0 0
0 0 0 0 0 0 0 0 0 0 0 0 0 0 0 0 0 0 0 0 0 0 0 0 0 0 0 0 0 0 0 0 0 0 0 0 0 0 0 0 0 0 0 0
0 0 0 0 0 0 0 0 0 0 0 0 0 0 0 0 0 0 0 0 0 0 0 0 0 0 0 0 0 0 0 0 0 0 0 0 0 0 0 0 0 0 0 0
0 0 0 -0 0 0 0 -0 0 0 0 0 0 0 0 0 0 0 0 0 0 0 0 0 0 0 0 0 0 0 0 0 0 0 0 0 0 0 0 0 0 0 0 0
0 0 0 -0 0 0 0 0 0 0 0 0 0 0 0 0 0 0 0 0 0 0 0 -0 0 0 0 0 0 0 0 0 0 0 0 0 0 0 0 0 0 0 0 0
0 0 0 0 0 0 0 0 0 0 0 0 0 0 0 0 0 0 0 0 0 0 0 0 0 0 0 0 0 0 0 0 0 0 0 0 0 0 0 0 0 0 0 0
0 0 0 -0 0 0 0 0 0 0 0 0 0 0 0 0 0 0 -0 -0 -0 0 0 0 0 0 0 0 0 0 0 0 0 0 0 0 0 0 0 0 0 0 0 0
Wind_Speed_500mb
10 8 7 11 6 17 11 12 12 12 16 19 36 22 46 61 62 47 52 56 47 57 48 40 36 32 20 14 15 12 7 9 7 7 4 5 6 2 6 8 14 20 22 24
1 1 6 5 2 6 3 9 10 7 15 4 35 47 39 50 48 52 52 52 50 39 42 35 35 37 31 19 19 21 15 9 5 3 4 3 2 2 5 7 10 13 19 20
6 5 2 8 7 7 4 4 11 8 10 9 13 32 45 58 52 53 56 59 48 48 35 32 37 42 28 24 26 31 29 18 22 15 8 6 3 4 6 8 10 11 15 16
6 5 4 13 11 6 6 3 2 3 8 20 19 27 38 43 34 30 36 39 43 26 25 31 37 31 33 30 36 35 35 30 30 27 16 11 11 7 8 9 9 7 8 11
7 6 8 5 9 10 8 9 7 11 12 15 35 33 11 33 26 40 42 44 46 36 31 32 30 28 28 28 28 26 36 34 35 33 24 19 18 15 15 10 9 4 6 8
4 6 10 6 16 27 12 5 19 10 23 28 35 9 8 31 43 44 43 45 53 48 36 31 28 29 29 26 26 27 30 40 43 44 32 27 25 18 16 13 9 5 6 12
6 4 9 10 33 25 4 12 37 15 13 26 4 4 32 40 44 42 47 49 43 37 28 22 20 20 18 17 14 17 27 36 46 47 40 35 27 22 20 16 8 4 7 13
4 6 11 26 9 1 5 7 3 25 15 27 32 27 21 43 45 43 42 37 29 23 23 20 14 10 7 2 9 10 9 26 47 49 49 41 36 29 26 17 10 8 11 19
8 8 7 12 6 3 9 14 29 40 35 43 50 43 32 22 26 32 28 22 21 19 16 13 12 9 6 10 12 12 15 26 42 45 45 47 38 28 25 18 13 14 16 15
5 6 4 7 1 6 19 28 29 32 41 45 55 43 39 53 8 9 14 18 15 15 12 14 14 11 10 11 11 13 15 30 36 40 38 32 30 24 19 18 16 15 16 18
2 1 3 1 1 17 33 44 48 39 36 35 26 20 24 56 31 16 15 16 15 15 16 17 19 19 14 12 11 12 17 22 24 22 24 25 25 23 21 22 16 14 17 16
8 12 8 7 14 15 20 27 29 30 30 23 27 37 42 35 29 25 23 23 20 19 16 21 21 25 22 19 14 15 24 26 26 24 24 23 22 27 25 21 19 19 20 15
9 8 11 14 10 9 18 23 25 25 24 30 30 30 37 37 32 30 23 19 19 20 21 22 26 29 31 29 26 26 28 32 33 33 32 30 27 20 21 23 22 20 20 21
15 19 11 19 11 20 21 30 31 28 27 27 29 25 25 30 37 31 27 21 20 23 28 30 32 34 34 33 36 40 41 45 49 47 45 44 42 39 34 27 20 21 22 24
14 10 10 15 22 27 30 35 35 31 31 31 23 19 20 29 33 33 31 30 30 29 28 29 36 41 46 47 47 48 52 50 45 42 40 35 33 33 33 32 29 26 19 26
10 9 8 15 31 35 35 33 32 30 30 29 23 17 25 29 35 33 33 33 37 41 39 43 46 49 51 47 44 42 42 37 31 28 25 22 20 19 22 22 20 19 18 22
18 18 21 27 28 34 35 32 32 32 29 23 23 26 31 32 34 37 38 34 34 36 43 49 50 47 44 37 32 31 27 23 19 16 14 11 9 10 14 14 13 13 18 23
43 33 30 28 33 32 39 41 35 31 28 25 25 26 32 35 41 38 40 37 39 47 51 47 42 35 29 26 23 19 16 16 20 19 19 21 19 20 18 18 17 13 19 22
48 42 31 34 29 32 42 50 41 30 32 28 30 27 29 34 44 48 49 48 50 51 47 39 30 23 17 15 18 18 15 14 24 23 27 25 20 18 22 20 24 23 17 10
39 48 40 32 25 26 32 35 35 29 32 33 31 27 32 37 45 49 49 48 45 40 30 25 21 16 11 8 23 24 25 20 20 25 23 23 20 18 15 14 18 22 21 18
29 41 40 28 22 31 28 35 37 36 32 34 29 29 32 40 48 44 45 45 39 33 24 26 26 25 20 15 11 2 13 18 23 26 27 23 27 26 24 23 20 22 25 30
18 33 34 29 27 32 33 38 36 26 26 36 34 32 37 48 52 47 41 42 31 34 35 27 27 17 2 9 15 23 31 23 20 17 20 28 33 35 37 36 35 34 32 34
38 40 32 30 22 23 29 12 14 22 30 38 35 36 42 50 53 52 54 43 44 38 33 6 16 11 8 6 13 19 21 19 14 13 17 19 21 27 37 48 50 48 45 38
48 47 34 26 17 29 30 34 27 31 28 33 32 35 45 63 52 43 42 33 25 29 19 9 4 16 22 21 27 30 30 25 20 18 16 18 24 34 34 41 42 47 51 50
41 43 39 27 31 29 30 35 36 28 24 30 35 40 51 48 47 37 29 18 32 29 24 15 9 2 10 18 20 13 12 11 10 14 14 16 22 26 22 24 30 38 36 41
47 46 42 39 42 43 39 30 26 28 32 40 53 54 46 38 35 19 27 32 24 18 17 14 3 5 7 11 14 13 13 12 12 15 19 21 22 25 27 25 26 27 31 37
54 52 48 43 37 33 29 30 37 50 50 49 40 33 21 21 17 28 15 18 12 8 8 8 6 12 20 18 12 15 17 17 19 22 25 26 24 23 26 31 32 34 33 36
Wind_Direction_500mb
216 210 201 217 168 158 164 190 174 252 204 192 200 184 181 187 196 187 182 187 182 183 190 194 202 203 194 182 176 181 136 120 119 129 98 4 348 56 90 87 68 69 73 79
219 128 298 241 229 72 117 115 287 336 259 239 148 170 184 191 188 185 193 193 185 186 196 207 213 211 204 197 193 208 200 132 178 163 327 332 354 157 116 100 80 78 83 77
252 39 341 345 222 147 221 183 172 231 269 145 146 163 186 193 197 186 194 209 206 197 209 219 215 213 219 220 229 218 216 206 195 212 245 270 160 141 120 112 97 98 89 81
198 42 163 242 284 275 237 185 175 294 186 201 158 133 181 192 192 184 185 190 199 197 201 208 206 214 220 222 231 232 219 217 212 215 212 238 197 178 166 150 135 122 98 93
151 172 274 314 30 19 337 285 213 160 137 159 142 137 119 190 194 195 194 193 199 208 199 198 209 222 229 233 241 237 229 231 218 220 225 236 219 208 206 179 170 149 118 117
114 151 202 242 305 319 294 275 336 281 155 154 140 142 171 186 200 195 197 195 188 195 202 209 223 237 243 244 241 239 237 216 219 215 222 232 228 219 208 186 187 174 171 156
159 214 287 315 306 314 114 257 312 181 142 151 120 186 172 184 181 185 176 175 181 189 201 211 216 223 230 231 242 229 216 219 210 211 220 223 220 214 201 190 199 218 196 171
88 124 262 351 354 79 178 290 358 102 101 90 75 76 144 168 161 167 172 177 184 193 202 195 195 200 221 216 177 185 203 215 204 210 213 213 213 207 186 197 203 191 191 166
156 209 292 319 56 31 166 157 121 131 121 116 92 80 59 29 152 162 174 171 170 174 177 168 157 146 124 141 158 176 196 196 201 208 209 196 187 196 176 181 186 168 162 167
96 320 331 278 70 107 151 143 148 155 150 147 124 119 79 339 260 141 142 144 145 151 155 148 133 125 150 157 164 174 195 198 191 184 189 173 177 165 164 163 167 177 174 175
33 232 271 260 248 157 129 137 139 143 155 165 179 208 219 206 210 194 168 154 150 153 148 142 136 132 119 114 119 139 166 162 158 155 155 155 151 139 138 133 132 149 147 152
205 201 219 179 184 179 190 188 193 187 167 155 173 161 167 175 176 167 166 162 158 144 141 134 129 119 115 114 128 162 156 149 142 137 132 134 138 135 136 135 134 137 137 139
189 187 215 167 170 158 175 169 165 163 159 155 154 168 167 161 162 152 151 163 141 136 138 131 125 118 113 112 118 129 133 127 124 121 117 110 107 110 124 125 127 130 134 135
160 129 144 187 199 186 177 174 171 169 160 161 155 149 156 161 151 149 153 154 145 145 140 135 128 124 122 124 125 122 121 121 118 114 112 106 99 92 90 91 108 121 129 135
217 242 273 250 206 190 180 173 169 163 157 148 154 164 168 161 154 155 156 153 151 150 149 144 135 130 127 124 120 118 120 123 119 114 111 108 106 103 102 95 89 83 116 142
221 242 261 238 188 187 189 186 188 174 167 161 162 161 161 163 158 155 156 155 160 152 145 140 135 132 132 130 128 126 126 128 133 130 126 125 127 128 125 120 106 94 113 151
232 223 212 196 199 202 207 206 206 189 175 175 159 155 164 166 158 159 158 157 157 151 146 143 140 141 141 140 142 143 146 158 171 178 180 186 194 190 179 170 149 137 148 155
247 255 253 238 222 229 229 216 207 195 186 174 165 161 169 167 164 162 156 155 153 151 151 151 145 143 148 161 168 174 181 210 227 226 227 227 231 235 235 224 210 190 197 193
239 242 244 230 236 258 227 217 210 200 188 185 175 157 166 167 165 160 159 160 156 154 153 154 157 161 169 187 199 209 221 252 248 250 234 230 229 230 233 232 225 209 203 218
239 228 236 230 250 219 203 212 211 209 194 188 179 161 163 169 168 164 163 161 156 155 164 168 172 164 152 179 206 217 225 262 260 244 244 239 246 237 235 249 222 212 221 236
228 214 215 229 223 202 205 202 203 204 199 195 190 178 167 169 170 170 170 169 172 177 183 180 176 185 185 158 166 184 272 261 255 244 246 252 268 250 247 248 242 237 240 238
186 190 197 204 205 195 188 196 202 208 203 193 192 187 182 179 177 179 184 183 186 176 168 166 176 177 283 303 294 246 267 275 259 241 234 246 256 254 251 252 244 243 244 240
172 178 164 148 147 163 162 132 194 223 200 186 187 188 194 188 185 185 180 190 177 164 177 212 141 162 199 260 281 283 276 279 255 235 237 238 254 267 266 263 256 250 247 249
157 150 148 137 147 142 158 189 221 189 178 180 188 192 192 181 180 181 179 156 153 179 174 134 172 249 252 271 290 286 282 284 257 239 246 271 296 306 281 263 261 253 253 252
149 146 136 143 179 175 174 165 160 164 175 176 182 184 178 170 175 165 176 191 150 154 178 199 182 178 335 346 337 341 317 287 253 229 250 283 301 293 302 280 264 253 256 258
121 122 123 130 138 144 145 149 158 157 159 154 146 142 142 148 141 132 158 160 185 211 201 224 125 32 2 354 348 330 331 319 297 279 274 275 277 291 301 301 294 281 264 261
107 111 115 119 125 130 135 137 138 136 136 136 127 123 137 149 162 166 183 189 186 182 134 162 251 298 294 276 292 286 303 326 323 307 308 307 296 286 286 288 287 287 285 286
Wind_Speed_850mb
10 8 7 11 6 17 11 12 12 12 16 19 36 22 46 61 62 47 52 56 47 57 48 40 36 32 20 14 15 12 7 9 7 7 4 5 6 2 6 8 14 20 22 24
1 1 6 5 2 6 3 9 10 7 15 4 35 47 39 50 48 52 52 52 50 39 42 35 35 37 31 19 19 21 15 9 5 3 4 3 2 2 5 7 10 13 19 20
6 5 2 8 7 7 4 4 11 8 10 9 13 32 45 58 52 53 56 59 48 48 35 32 37 42 28 24 26 31 29 18 22 15 8 6 3 4 6 8 10 11 15 16
6 5 4 13 11 6 6 3 2 3 8 20 19 27 38 43 34 30 36 39 43 26 25 31 37 31 33 30 36 35 35 30 30 27 16 11 11 7 8 9 9 7 8 11
7 6 8 5 9 10 8 9 7 11 12 15 35 33 11 33 26 40 42 44 46 36 31 32 30 28 28 28 28 26 36 34 35 33 24 19 18 15 15 10 9 4 6 8
4 6 10 6 16 27 12 5 19 10 23 28 35 9 8 31 43 44 43 45 53 48 36 31 28 29 29 26 26 27 30 40 43 44 32 27 25 18 16 13 9 5 6 12
6 4 9 10 33 25 4 12 37 15 13 26 4 4 32 40 44 42 47 49 43 37 28 22 20 20 18 17 14 17 27 36 46 47 40 35 27 22 20 16 8 4 7 13
4 6 11 26 9 1 5 7 3 25 15 27 32 27 21 43 45 43 42 37 29 23 23 20 14 10 7 2 9 10 9 26 47 49 49 41 36 29 26 17 10 8 11 19
8 8 7 12 6 3 9 14 29 40 35 43 50 43 32 22 26 32 28 22 21 19 16 13 12 9 6 10 12 12 15 26 42 45 45 47 38 28 25 18 13 14 16 15
5 6 4 7 1 6 19 28 29 32 41 45 55 43 39 53 8 9 14 18 15 15 12 14 14 11 10 11 11 13 15 30 36 40 38 32 30 24 19 18 16 15 16 18
2 1 3 1 1 17 33 44 48 39 36 35 26 20 24 56 31 16 15 16 15 15 16 17 19 19 14 12 11 12 17 22 24 22 24 25 25 23 21 22 16 14 17 16
8 12 8 7 14 15 20 27 29 30 30 23 27 37 42 35 29 25 23 23 20 19 16 21 21 25 22 19 14 15 24 26 26 24 24 23 22 27 25 21 19 19 20 15
9 8 11 14 10 9 18 23 25 25 24 30 30 30 37 37 32 30 23 19 19 20 21 22 26 29 31 29 26 26 28 32 33 33 32 30 27 20 21 23 22 20 20 21
15 19 11 19 11 20 21 30 31 28 27 27 29 25 25 30 37 31 27 21 20 23 28 30 32 34 34 33 36 40 41 45 49 47 45 44 42 39 34 27 20 21 22 24
14 10 10 15 22 27 30 35 35 31 31 31 23 19 20 29 33 33 31 30 30 29 28 29 36 41 46 47 47 48 52 50 45 42 40 35 33 33 33 32 29 26 19 26
10 9 8 15 31 35 35 33 32 30 30 29 23 17 25 29 35 33 33 33 37 41 39 43 46 49 51 47 44 42 42 37 31 28 25 22 20 19 22 22 20 19 18 22
18 18 21 27 28 34 35 32 32 32 29 23 23 26 31 32 34 37 38 34 34 36 43 49 50 47 44 37 32 31 27 23 19 16 14 11 9 10 14 14 13 13 18 23
43 33 30 28 33 32 39 41 35 31 28 25 25 26 32 35 41 38 40 37 39 47 51 47 42 35 29 26 23 19 16 16 20 19 19 21 19 20 18 18 17 13 19 22
48 42 31 34 29 32 42 50 41 30 32 28 30 27 29 34 44 48 49 48 50 51 47 39 30 23 17 15 18 18 15 14 24 23 27 25 20 18 22 20 24 23 17 10
39 48 40 32 25 26 32 35 35 29 32 33 31 27 32 37 45 49 49 48 45 40 30 25 21 16 11 8 23 24 25 20 20 25 23 23 20 18 15 14 18 22 21 18
29 41 40 28 22 31 28 35 37 36 32 34 29 29 32 40 48 44 45 45 39 33 24 26 26 25 20 15 11 2 13 18 23 26 27 23 27 26 24 23 20 22 25 30
18 33 34 29 27 32 33 38 36 26 26 36 34 32 37 48 52 47 41 42 31 34 35 27 27 17 2 9 15 23 31 23 20 17 20 28 33 35 37 36 35 34 32 34
38 40 32 30 22 23 29 12 14 22 30 38 35 36 42 50 53 52 54 43 44 38 33 6 16 11 8 6 13 19 21 19 14 13 17 19 21 27 37 48 50 48 45 38
48 47 34 26 17 29 30 34 27 31 28 33 32 35 45 63 52 43 42 33 25 29 19 9 4 16 22 21 27 30 30 25 20 18 16 18 24 34 34 41 42 47 51 50
41 43 39 27 31 29 30 35 36 28 24 30 35 40 51 48 47 37 29 18 32 29 24 15 9 2 10 18 20 13 12 11 10 14 14 16 22 26 22 24 30 38 36 41
47 46 42 39 42 43 39 30 26 28 32 40 53 54 46 38 35 19 27 32 24 18 17 14 3 5 7 11 14 13 13 12 12 15 19 21 22 25 27 25 26 27 31 37
54 52 48 43 37 33 29 30 37 50 50 49 40 33 21 21 17 28 15 18 12 8 8 8 6 12 20 18 12 15 17 17 19 22 25 26 24 23 26 31 32 34 33 36
Wind_Direction_850mb
216 210 201 217 168 158 164 190 174 252 204 192 200 184 181 187 196 187 182 187 182 183 190 194 202 203 194 182 176 181 136 120 119 129 98 4 348 56 90 87 68 69 73 79
219 128 298 241 229 72 117 115 287 336 259 239 148 170 184 191 188 185 193 193 185 186 196 207 213 211 204 197 193 208 200 132 178 163 327 332 354 157 116 100 80 78 83 77
252 39 341 345 222 147 221 183 172 231 269 145 146 163 186 193 197 186 194 209 206 197 209 219 215 213 219 220 229 218 216 206 195 212 245 270 160 141 120 112 97 98 89 81
198 42 163 242 284 275 237 185 175 294 186 201 158 133 181 192 192 184 185 190 199 197 201 208 206 214 220 222 231 232 219 217 212 215 212 238 197 178 166 150 135 122 98 93
151 172 274 314 30 19 337 285 213 160 137 159 142 137 119 190 194 195 194 193 199 208 199 198 209 222 229 233 241 237 229 231 218 220 225 236 219 208 206 179 170 149 118 117
114 151 202 242 305 319 294 275 336 281 155 154 140 142 171 186 200 195 197 195 188 195 202 209 223 237 243 244 241 239 237 216 219 215 222 232 228 219 208 186 187 174 171 156
159 214 287 315 306 314 114 257 312 181 142 151 120 186 172 184 181 185 176 175 181 189 201 211 216 223 230 231 242 229 216 219 210 211 220 223 220 214 201 190 199 218 196 171
88 124 262 351 354 79 178 290 358 102 101 90 75 76 144 168 161 167 172 177 184 193 202 195 195 200 221 216 177 185 203 215 204 210 213 213 213 207 186 197 203 191 191 166
156 209 292 319 56 31 166 157 121 131 121 116 92 80 59 29 152 162 174 171 170 174 177 168 157 146 124 141 158 176 196 196 201 208 209 196 187 196 176 181 186 168 162 167
96 320 331 278 70 107 151 143 148 155 150 147 124 119 79 339 260 141 142 144 145 151 155 148 133 125 150 157 164 174 195 198 191 184 189 173 177 165 164 163 167 177 174 175
33 232 271 260 248 157 129 137 139 143 155 165 179 208 219 206 210 194 168 154 150 153 148 142 136 132 119 114 119 139 166 162 158 155 155 155 151 139 138 133 132 149 147 152
205 201 219 179 184 179 190 188 193 187 167 155 173 161 167 175 176 167 166 162 158 144 141 134 129 119 115 114 128 162 156 149 142 137 132 134 138 135 136 135 134 137 137 139
189 187 215 167 170 158 175 169 165 163 159 155 154 168 167 161 162 152 151 163 141 136 138 131 125 118 113 112 118 129 133 127 124 121 117 110 107 110 124 125 127 130 134 135
160 129 144 187 199 186 177 174 171 169 160 161 155 149 156 161 151 149 153 154 145 145 140 135 128 124 122 124 125 122 121 121 118 114 112 106 99 92 90 91 108 121 129 135
217 242 273 250 206 190 180 173 169 163 157 148 154 164 168 161 154 155 156 153 151 150 149 144 135 130 127 124 120 118 120 123 119 114 111 108 106 103 102 95 89 83 116 142
221 242 261 238 188 187 189 186 188 174 167 161 162 161 161 163 158 155 156 155 160 152 145 140 135 132 132 130 128 126 126 128 133 130 126 125 127 128 125 120 106 94 113 151
232 223 212 196 199 202 207 206 206 189 175 175 159 155 164 166 158 159 158 157 157 151 146 143 140 141 141 140 142 143 146 158 171 178 180 186 194 190 179 170 149 137 148 155
247 255 253 238 222 229 229 216 207 195 186 174 165 161 169 167 164 162 156 155 153 151 151 151 145 143 148 161 168 174 181 210 227 226 227 227 231 235 235 224 210 190 197 193
239 242 244 230 236 258 227 217 210 200 188 185 175 157 166 167 165 160 159 160 156 154 153 154 157 161 169 187 199 209 221 252 248 250 234 230 229 230 233 232 225 209 203 218
239 228 236 230 250 219 203 212 211 209 194 188 179 161 163 169 168 164 163 161 156 155 164 168 172 164 152 179 206 217 225 262 260 244 244 239 246 237 235 249 222 212 221 236
228 214 215 229 223 202 205 202 203 204 199 195 190 178 167 169 170 170 170 169 172 177 183 180 176 185 185 158 166 184 272 261 255 244 246 252 268 250 247 248 242 237 240 238
186 190 197 204 205 195 188 196 202 208 203 193 192 187 182 179 177 179 184 183 186 176 168 166 176 177 283 303 294 246 267 275 259 241 234 246 256 254 251 252 244 243 244 240
172 178 164 148 147 163 162 132 194 223 200 186 187 188 194 188 185 185 180 190 177 164 177 212 141 162 199 260 281 283 276 279 255 235 237 238 254 267 266 263 256 250 247 249
157 150 148 137 147 142 158 189 221 189 178 180 188 192 192 181 180 181 179 156 153 179 174 134 172 249 252 271 290 286 282 284 257 239 246 271 296 306 281 263 261 253 253 252
149 146 136 143 179 175 174 165 160 164 175 176 182 184 178 170 175 165 176 191 150 154 178 199 182 178 335 346 337 341 317 287 253 229 250 283 301 293 302 280 264 253 256 258
121 122 123 130 138 144 145 149 158 157 159 154 146 142 142 148 141 132 158 160 185 211 201 224 125 32 2 354 348 330 331 319 297 279 274 275 277 291 301 301 294 281 264 261
107 111 115 119 125 130 135 137 138 136 136 136 127 123 137 149 162 166 183 189 186 182 134 162 251 298 294 276 292 286 303 326 323 307 308 307 296 286 286 288 287 287 285 286